Wind_Speed
15 14 13 12 10 9 8 7 6 5 4 3 2 1 0 1 1 2 2 3 4 4 4 5 6 6 7 7 8 8 9 10 10 11 12 12 12 13 13 13 14 14 15
17 16 15 13 12 10 9 8 7 6 5 4 3 2 2 2 2 3 4 4 5 5 5 6 7 7 8 8 9 10 11 11 12 12 13 13 13 14 14 14 14 15 15
18 18 16 15 13 12 11 10 9 7 6 5 4 4 4 4 4 4 5 5 5 6 6 7 7 8 9 9 10 11 12 12 13 13 14 14 14 14 15 15 16 16 16
20 19 18 16 15 14 12 11 10 9 8 7 6 6 5 5 5 6 6 6 6 6 7 7 8 9 9 10 11 12 12 13 14 14 14 15 15 15 16 16 16 17 17
22 20 19 18 17 15 14 13 12 11 10 9 8 7 7 7 6 6 6 6 7 7 8 8 9 10 10 11 12 12 13 14 14 15 15 15 15 16 16 17 17 18 18
23 22 21 19 18 17 16 14 13 12 11 10 9 9 8 8 8 8 7 7 8 8 9 9 10 10 11 11 12 13 14 14 15 15 15 16 16 17 17 18 19 19 19
25 24 22 21 20 18 17 16 15 14 12 11 11 10 10 9 9 9 9 9 9 9 10 10 11 11 12 12 13 14 15 15 15 16 16 17 17 18 19 20 20 20 21
26 25 24 23 21 20 18 18 16 15 14 13 12 12 11 11 10 10 10 10 10 10 11 11 12 12 13 13 14 15 15 16 16 17 18 18 19 20 20 21 21 22 22
28 27 26 25 23 21 20 19 18 17 16 15 14 14 13 12 12 11 11 11 11 12 12 12 13 14 14 15 16 16 17 18 18 19 19 20 21 22 22 23 23 23 24
30 28 27 26 25 23 22 20 19 18 17 17 16 16 15 14 13 13 13 13 13 13 14 14 15 16 16 16 17 18 18 19 19 20 21 22 23 23 24 24 24 25 25
31 30 28 28 26 25 24 22 21 20 19 18 17 17 17 16 15 15 15 15 15 15 16 16 17 17 17 18 18 19 19 20 21 21 22 23 24 25 25 26 26 26 27
32 31 30 29 28 27 26 24 23 22 21 20 19 19 18 18 17 17 17 17 17 17 17 18 18 18 19 19 20 20 21 21 22 23 24 25 25 26 27 27 28 28 29
34 33 32 30 29 29 28 26 25 24 23 22 21 21 20 20 19 19 19 19 19 19 19 19 19 20 20 21 21 22 23 23 24 25 25 26 27 28 28 29 29 30 31
35 35 33 32 31 31 30 29 27 26 25 24 24 23 22 21 21 21 21 21 21 21 21 21 21 22 22 22 23 23 24 25 26 26 27 28 29 29 30 30 31 32 32
37 36 34 33 33 32 32 30 29 28 27 26 25 25 24 23 23 22 22 23 23 22 23 23 23 24 24 24 24 25 26 27 27 28 29 29 30 31 31 32 32 33 34
39 37 36 35 34 34 33 32 31 30 29 28 27 26 26 25 24 24 24 24 24 25 25 24 24 25 25 26 26 27 27 28 28 29 30 31 32 32 33 33 34 34 35
40 39 38 37 35 35 35 34 32 32 31 30 29 29 28 28 26 26 26 26 26 26 27 26 26 26 26 27 28 28 28 29 30 31 32 32 33 33 34 34 34 35 36
42 41 39 38 37 36 36 35 35 34 33 32 31 30 30 29 29 28 28 29 28 28 28 28 28 27 28 28 29 29 30 30 31 32 33 34 34 34 34 35 36 36 37
42 42 41 40 40 38 37 36 36 35 34 34 33 32 32 31 31 31 31 30 30 30 29 29 29 29 29 29 30 30 31 31 32 33 34 35 35 35 35 36 37 37 38
43 42 42 41 41 40 39 38 37 36 35 35 35 35 34 33 32 33 33 32 32 32 31 31 31 31 30 30 30 31 32 33 33 34 35 35 36 36 36 37 38 39 39
44 43 42 42 41 41 40 40 39 38 37 36 36 37 36 35 34 34 34 34 33 33 33 33 32 32 32 32 31 32 33 33 34 35 35 36 36 37 37 39 40 40 41
44 43 43 42 42 41 41 41 40 40 39 38 38 38 37 37 36 36 35 35 35 34 33 33 33 33 33 33 33 33 33 33 34 35 35 35 36 37 38 39 41 42 43
45 44 44 43 42 41 42 41 40 40 41 41 40 39 39 39 38 38 37 36 35 34 34 33 33 34 34 34 34 34 35 35 35 34 35 36 37 38 39 41 43 43 44
45 45 45 44 44 43 41 41 41 40 41 41 41 40 40 39 39 38 37 36 36 35 34 34 34 34 34 34 35 35 36 37 37 36 36 37 38 39 41 43 44 45 46
46 47 46 45 44 43 41 41 41 40 39 39 39 39 39 40 39 39 39 38 37 36 35 35 35 35 36 36 36 37 37 37 38 38 37 38 39 40 42 44 45 45 46
47 47 47 46 45 44 43 42 42 42 41 40 39 40 40 40 40 40 39 39 37 36 36 36 36 37 37 37 38 38 38 39 39 40 40 40 41 42 44 45 45 45 46
Wind_Direction
213 212 211 211 211 212 212 213 211 209 209 213 224 237 276 334 353 1 351 346 344 343 340 340 341 340 340 339 336 334 334 331 328 326 324 323 321 318 315 314 313 312 311
217 216 215 216 217 218 219 218 219 219 219 225 238 248 267 287 307 320 330 330 329 331 333 335 333 332 332 333 333 330 328 326 324 324 322 321 320 318 315 313 311 310 309
220 219 219 219 221 221 221 221 223 226 227 232 241 251 266 281 293 304 315 320 321 324 326 327 327 326 326 327 327 327 325 323 322 321 320 318 318 317 315 313 311 310 308
222 221 221 222 224 224 224 225 226 230 234 238 245 254 265 276 286 297 305 310 314 317 318 319 321 320 322 324 324 325 324 322 322 320 318 318 317 316 314 312 311 309 307
223 223 223 224 225 225 225 228 230 233 237 242 247 255 264 272 280 289 294 297 303 307 311 314 316 316 317 319 321 323 322 321 320 318 318 317 316 315 313 312 311 309 307
224 223 224 226 226 227 226 228 232 235 240 244 248 254 261 267 275 281 287 289 295 299 303 309 312 312 313 315 317 319 318 318 317 317 318 317 315 314 313 312 310 309 307
224 223 224 225 226 227 228 228 231 235 240 244 248 254 259 264 272 278 282 286 291 294 299 304 307 308 310 312 314 315 315 314 314 315 315 315 314 313 312 312 310 308 306
224 224 223 224 226 227 229 230 232 235 240 245 248 253 257 262 269 276 280 283 288 291 296 300 304 305 307 310 311 311 312 311 311 311 312 312 312 311 311 311 309 307 306
224 224 224 225 225 227 230 231 233 237 241 245 250 253 256 260 268 273 277 281 284 288 292 297 300 302 304 307 308 308 308 308 308 309 310 310 310 310 310 309 308 306 305
223 223 224 226 226 228 230 232 234 238 242 246 250 254 256 260 266 271 275 278 282 286 290 294 297 299 302 304 306 306 306 307 307 307 307 308 309 309 308 307 306 305 304
223 224 225 226 227 229 231 232 235 238 241 246 251 254 256 259 263 268 272 276 281 285 288 290 293 296 300 302 304 304 304 305 305 305 305 306 306 307 307 306 305 304 303
223 224 225 226 228 229 231 233 236 238 241 246 250 254 256 259 262 267 271 275 279 284 287 290 292 295 297 299 302 303 303 303 303 304 303 304 305 305 305 305 304 303 302
223 224 225 226 228 230 231 233 236 239 242 246 249 252 255 258 262 267 271 274 278 281 284 287 291 293 295 298 299 301 301 301 302 303 303 303 303 304 304 304 303 303 302
223 224 225 227 229 230 231 233 236 240 243 247 250 251 254 257 261 266 271 273 276 279 281 284 288 291 294 296 298 300 300 300 301 302 302 302 302 303 303 303 303 303 303
223 225 226 228 229 230 232 233 236 239 242 246 249 251 253 256 261 265 270 273 274 277 280 283 286 289 291 294 297 299 300 300 300 300 301 302 302 302 303 303 303 303 303
223 225 226 229 230 231 232 234 236 239 242 246 249 252 254 256 261 265 269 273 274 276 280 284 286 288 290 294 296 298 299 299 300 301 301 302 303 303 303 303 303 303 304
224 225 228 229 230 232 232 234 236 239 243 246 248 251 254 256 260 264 268 271 273 275 278 282 284 286 289 292 294 296 298 299 299 300 301 301 302 303 304 303 303 303 304
227 228 229 229 230 232 233 236 238 241 243 246 249 251 253 256 259 263 267 270 273 275 276 279 283 286 289 290 293 295 296 298 299 299 301 301 302 303 303 303 303 303 304
227 229 230 231 231 233 235 237 239 241 244 246 248 251 253 256 260 263 266 269 272 274 276 278 281 285 288 289 291 293 294 295 298 299 300 301 302 303 303 303 303 303 304
228 230 230 231 233 235 236 237 239 241 244 246 249 251 254 257 260 263 265 268 271 273 275 277 279 283 286 288 290 291 293 295 297 299 300 300 301 302 303 303 303 303 304
228 230 230 231 233 235 236 238 240 241 244 248 250 252 255 257 260 262 264 266 269 272 274 276 279 282 285 287 289 291 292 294 296 298 299 300 301 302 302 303 304 304 304
228 229 231 231 233 235 237 239 240 242 245 248 251 252 255 257 258 259 263 265 269 271 272 274 278 281 284 286 288 290 292 294 295 297 298 300 301 302 303 304 305 306 307
229 229 230 231 234 236 238 239 241 244 246 249 251 253 255 257 259 261 262 265 268 270 271 274 277 280 283 286 287 289 291 294 295 296 298 300 302 303 304 305 306 307 307
229 229 230 232 234 236 238 240 242 245 248 250 252 254 256 257 258 261 263 264 267 269 271 274 277 280 283 285 287 289 292 294 296 297 298 300 302 304 305 306 307 307 307
229 230 231 233 234 235 238 240 241 243 247 250 252 254 255 257 259 261 262 263 266 268 271 274 277 279 281 284 286 289 291 294 296 297 298 301 303 304 305 306 307 308 308
228 230 231 233 235 237 238 240 242 245 248 251 253 255 257 258 260 262 262 263 265 268 271 273 277 279 280 283 285 288 291 293 295 297 298 300 302 305 305 306 307 308 309
Height
5874 5875 5876 5877 5878 5878 5879 5879 5880 5880 5881 5881 5881 5881 5881 5880 5880 5880 5879 5879 5878 5877 5877 5876 5875 5874 5874 5873 5872 5871 5869 5868 5867 5865 5864 5862 5861 5859 5858 5856 5854 5853 5851
5871 5873 5874 5875 5876 5877 5878 5878 5879 5879 5880 5880 5880 5880 5880 5880 5879 5879 5879 5878 5877 5877 5876 5875 5874 5874 5873 5872 5870 5869 5868 5867 5865 5864 5862 5860 5859 5857 5856 5854 5852 5851 5849
5869 5870 5872 5873 5874 5875 5876 5877 5878 5878 5879 5879 5879 5879 5879 5879 5879 5878 5878 5877 5876 5876 5875 5874 5873 5873 5872 5870 5869 5868 5866 5865 5863 5862 5860 5858 5857 5855 5853 5852 5850 5848 5847
5866 5867 5869 5871 5872 5873 5874 5875 5876 5877 5877 5878 5878 5878 5878 5878 5877 5877 5876 5876 5875 5875 5874 5873 5872 5871 5870 5869 5868 5866 5865 5863 5862 5860 5858 5856 5854 5853 5851 5849 5848 5846 5844
5863 5864 5866 5868 5870 5871 5872 5873 5874 5875 5875 5876 5876 5876 5876 5876 5876 5876 5875 5875 5874 5873 5873 5872 5871 5870 5869 5867 5866 5864 5863 5861 5859 5858 5856 5854 5852 5850 5849 5847 5845 5843 5841
5859 5861 5863 5865 5867 5868 5869 5871 5872 5873 5873 5874 5874 5874 5875 5874 5874 5874 5874 5873 5873 5872 5871 5870 5869 5868 5867 5866 5864 5862 5861 5859 5857 5855 5853 5852 5850 5848 5846 5844 5842 5840 5838
5855 5857 5859 5862 5864 5865 5867 5868 5869 5870 5871 5872 5872 5872 5872 5872 5872 5872 5872 5871 5871 5870 5869 5868 5867 5866 5865 5863 5862 5860 5858 5857 5855 5853 5851 5849 5847 5845 5843 5841 5839 5837 5834
5850 5853 5855 5858 5860 5862 5864 5865 5866 5867 5868 5869 5870 5870 5870 5870 5870 5870 5870 5869 5869 5868 5867 5866 5865 5864 5862 5861 5859 5858 5856 5854 5852 5850 5848 5846 5844 5842 5840 5838 5835 5833 5831
5846 5849 5851 5854 5856 5858 5860 5862 5863 5864 5866 5866 5867 5867 5868 5868 5868 5868 5867 5867 5866 5865 5865 5864 5863 5861 5860 5858 5857 5855 5853 5851 5849 5847 5845 5843 5841 5839 5836 5834 5831 5829 5827
5840 5844 5847 5850 5852 5854 5856 5858 5860 5861 5862 5863 5864 5864 5865 5865 5865 5865 5865 5864 5864 5863 5862 5861 5860 5859 5857 5856 5854 5852 5850 5848 5846 5844 5842 5840 5837 5835 5833 5830 5827 5825 5822
5835 5839 5842 5845 5848 5850 5852 5854 5856 5857 5858 5860 5861 5861 5862 5862 5862 5862 5862 5861 5861 5860 5859 5858 5857 5856 5854 5852 5851 5849 5847 5845 5843 5840 5838 5836 5833 5831 5828 5826 5823 5820 5818
5830 5834 5837 5840 5843 5845 5848 5850 5852 5853 5854 5856 5857 5858 5858 5858 5858 5858 5858 5858 5857 5857 5856 5854 5853 5852 5851 5849 5847 5845 5843 5841 5839 5837 5834 5832 5829 5827 5824 5821 5818 5815 5813
5824 5828 5832 5835 5838 5840 5843 5845 5847 5849 5850 5851 5853 5853 5854 5854 5854 5854 5854 5854 5853 5853 5852 5851 5850 5848 5847 5845 5844 5842 5839 5837 5835 5832 5830 5827 5825 5822 5819 5816 5813 5810 5807
5818 5822 5826 5830 5832 5835 5838 5840 5842 5844 5845 5847 5848 5849 5849 5850 5850 5850 5850 5850 5849 5849 5848 5847 5846 5844 5843 5841 5839 5837 5835 5833 5830 5828 5825 5823 5820 5817 5814 5811 5808 5805 5801
5812 5816 5820 5823 5826 5829 5832 5835 5837 5839 5840 5842 5843 5844 5845 5845 5846 5846 5846 5845 5845 5844 5843 5843 5841 5840 5838 5837 5835 5833 5830 5828 5825 5823 5820 5817 5815 5811 5808 5805 5802 5798 5795
5805 5810 5814 5817 5820 5824 5826 5829 5831 5833 5835 5836 5837 5839 5840 5840 5841 5841 5841 5840 5840 5840 5839 5838 5836 5835 5833 5832 5830 5828 5825 5823 5820 5817 5815 5812 5809 5806 5802 5799 5795 5792 5788
5798 5802 5806 5811 5813 5817 5820 5823 5825 5827 5829 5830 5832 5833 5834 5835 5835 5835 5836 5835 5835 5834 5834 5832 5831 5830 5828 5826 5824 5822 5820 5817 5815 5812 5809 5806 5803 5799 5796 5792 5789 5785 5781
5791 5795 5799 5803 5807 5810 5814 5816 5819 5821 5823 5824 5826 5827 5828 5829 5830 5830 5830 5830 5829 5829 5828 5827 5826 5824 5823 5821 5819 5817 5814 5812 5809 5806 5803 5800 5796 5793 5789 5786 5782 5778 5774
5783 5788 5792 5795 5799 5803 5806 5809 5812 5814 5816 5818 5820 5821 5822 5823 5824 5824 5824 5824 5823 5823 5822 5821 5820 5818 5817 5815 5813 5811 5808 5806 5803 5800 5796 5793 5789 5786 5782 5779 5775 5771 5766
5776 5780 5784 5788 5792 5795 5799 5802 5805 5807 5809 5811 5813 5814 5815 5817 5817 5818 5818 5818 5817 5817 5816 5815 5814 5812 5810 5808 5806 5804 5802 5799 5796 5793 5790 5786 5783 5779 5775 5771 5767 5763 5759
5769 5773 5777 5781 5784 5788 5791 5795 5797 5800 5802 5804 5806 5807 5808 5810 5810 5811 5811 5811 5810 5810 5809 5808 5807 5806 5804 5802 5800 5798 5795 5792 5789 5786 5783 5779 5776 5772 5768 5764 5759 5755 5750
5761 5765 5770 5773 5777 5780 5784 5787 5790 5793 5795 5797 5798 5800 5801 5802 5803 5803 5803 5804 5803 5803 5802 5801 5800 5799 5797 5795 5793 5791 5789 5787 5783 5780 5776 5772 5769 5765 5760 5756 5751 5746 5741
5753 5758 5762 5766 5769 5772 5775 5779 5782 5784 5786 5789 5791 5792 5793 5794 5795 5795 5796 5796 5796 5796 5795 5794 5793 5792 5790 5788 5786 5784 5781 5779 5776 5773 5769 5765 5761 5757 5752 5747 5742 5737 5731
5745 5749 5753 5757 5761 5765 5768 5771 5774 5777 5779 5781 5782 5784 5785 5786 5787 5788 5788 5788 5788 5788 5788 5787 5786 5785 5783 5781 5779 5776 5774 5771 5768 5765 5762 5757 5753 5748 5744 5738 5733 5727 5722
5735 5740 5744 5748 5752 5756 5759 5763 5766 5768 5770 5772 5774 5776 5777 5778 5779 5780 5780 5780 5780 5781 5780 5780 5778 5777 5775 5774 5772 5769 5766 5763 5760 5757 5754 5750 5745 5740 5735 5729 5724 5718 5712
5726 5731 5736 5739 5743 5747 5750 5754 5757 5759 5762 5764 5765 5767 5769 5770 5771 5772 5772 5772 5773 5773 5772 5772 5771 5769 5768 5766 5764 5762 5759 5756 5753 5749 5745 5741 5737 5732 5726 5720 5714 5708 5702